Location: Newark
(43.0658°N, 122.2322°W)
Time: 18:03:26
(UTC+00:00)

STARLINK-1690 - Pass Details

Date: 22 September 2020
Orbit: 548 x 551 km, 53.0° (Epoch: 28 October)

Event Time Altitude Azimuth Distance (km) Brightness Sun altitude
Exits shadow 11:13:33 21° 7° (N) 1,271 5.8 -29.2°
Drops below altitude 10° 11:16:03 10° 43° (NE) 1,831 7.1 -28.8°
Sets 11:18:42 0° 59° (ENE) 2,727 8.4 -28.4°
